Temp
82 82 84 83 86 66 76 78 70 74 85 81 65 67 72 72 69 64 73 72 78 82 82 83 84 84 83 85 86 86 82 80 76 74 73 77 83 86 87 86 88 88 89 90 90 91 91 92 92 91 90 90 88 88 89 88 88 89 89 88 89 89 89
83 87 87 86 86 86 81 71 77 85 88 82 72 62 61 61 57 63 72 68 72 72 66 79 80 81 83 82 84 86 82 81 76 75 74 73 78 83 85 86 87 88 89 89 90 91 91 92 93 91 89 90 89 89 89 88 89 87 90 90 91 90 88
81 87 86 82 86 88 81 78 89 75 64 63 72 67 56 56 57 62 66 71 72 75 71 76 76 79 80 81 83 83 80 80 79 77 76 77 78 81 83 84 86 87 88 89 89 90 91 91 91 91 90 90 90 90 91 90 89 91 92 94 93 92 91
81 81 80 68 75 84 87 86 83 87 79 72 66 69 69 68 59 60 63 68 66 76 80 76 78 80 80 81 82 82 82 80 79 79 77 77 78 79 82 84 85 86 88 89 89 89 89 89 90 91 90 92 92 91 90 89 90 90 91 93 92 91 93
80 69 76 74 76 72 74 76 76 77 77 84 80 78 71 68 62 62 62 62 70 73 75 78 77 78 81 82 80 81 82 82 81 80 78 76 75 76 79 83 85 87 88 89 89 89 89 90 91 91 90 90 90 91 90 88 88 91 91 93 91 91 92
70 74 81 82 82 81 78 76 74 78 73 70 65 62 79 75 67 59 63 61 70 71 78 79 80 81 82 83 81 80 82 83 82 80 80 78 74 72 74 80 84 87 87 89 89 88 90 90 88 87 88 89 89 89 90 89 93 89 90 90 89 89 90
73 78 84 86 84 86 83 82 78 82 80 78 70 58 66 73 73 75 73 66 66 73 76 78 80 82 83 83 83 81 82 84 84 82 82 80 78 74 72 73 75 78 80 83 86 88 88 89 87 87 88 87 87 87 87 87 88 88 89 89 89 88 89
77 79 82 83 84 84 81 82 84 83 77 79 76 74 76 69 71 68 67 62 68 73 75 77 77 78 82 83 84 82 83 83 84 83 82 80 78 77 74 71 71 74 77 74 75 80 84 86 86 87 87 86 86 86 86 86 86 87 87 88 88 87 88
66 70 75 76 82 82 78 78 81 83 83 83 83 82 81 69 71 71 66 59 68 70 75 77 76 76 76 79 82 82 78 78 82 83 83 82 79 77 73 71 72 73 73 72 73 76 78 80 83 84 85 85 85 85 86 86 86 87 86 86 85 85 86
52 52 55 59 64 70 78 79 78 77 78 77 75 69 70 62 69 72 67 68 71 71 73 73 74 73 72 74 76 77 77 76 77 80 81 80 80 77 76 72 71 71 71 72 73 74 75 75 75 78 80 82 83 84 85 86 86 86 85 85 84 84 84
60 60 62 69 74 77 70 73 75 76 78 81 79 76 71 66 70 68 70 73 67 67 70 71 71 72 70 70 71 71 71 73 76 76 78 79 79 78 79 75 74 72 72 72 73 74 75 76 76 76 77 77 78 79 81 83 85 84 84 84 84 83 83
66 69 68 73 74 71 73 72 73 75 76 76 75 72 70 75 71 62 73 75 74 73 72 71 71 72 70 70 71 70 70 71 73 73 73 74 75 75 76 75 73 72 72 72 72 72 72 73 75 76 75 75 75 76 78 81 83 84 84 83 82 82 82
71 72 73 75 74 74 73 73 73 73 75 74 72 74 73 71 68 66 72 74 73 75 76 76 74 71 69 69 69 71 72 72 72 72 71 72 72 72 72 71 70 69 69 71 72 73 73 73 73 73 74 75 76 76 78 80 83 83 82 81 81 82 81
70 71 72 74 73 72 72 72 73 73 74 73 73 72 73 73 68 71 73 71 72 76 76 76 72 73 75 72 71 70 70 71 71 72 72 72 72 71 68 69 69 71 71 71 72 73 73 74 73 72 72 73 74 75 76 79 81 81 80 79 78 78 77
67 70 72 73 74 71 69 71 72 73 73 73 72 73 72 74 72 73 73 70 68 74 77 73 72 75 76 73 71 69 69 70 71 72 72 72 69 67 70 71 74 74 74 73 72 73 73 73 70 71 73 74 74 74 75 78 79 80 80 79 79 79 77
63 69 70 71 73 73 69 67 68 69 70 67 69 67 70 69 66 68 70 69 68 73 73 70 69 71 70 70 69 68 68 70 71 72 72 71 68 69 70 75 74 73 73 73 72 73 73 72 72 72 72 72 72 72 74 75 75 76 77 77 77 77 77
63 67 70 69 70 70 65 63 65 68 70 71 72 72 72 71 71 70 68 61 71 72 71 67 66 70 70 71 72 70 70 70 71 72 72 71 70 74 75 74 73 75 74 74 73 72 72 71 72 73 74 73 71 72 73 74 75 75 76 76 76 76 77
62 66 67 69 65 56 54 67 72 70 68 70 67 67 69 71 73 70 70 73 74 71 70 68 67 67 70 71 72 74 72 71 71 74 75 76 76 77 77 77 75 72 72 72 72 72 72 73 72 71 72 72 72 73 72 72 71 71 72 71 72 73 74
58 61 64 60 52 53 64 72 73 73 73 73 71 69 70 71 74 76 73 73 73 71 73 71 69 71 75 76 74 75 77 76 74 74 75 76 76 76 77 77 75 71 70 70 70 70 72 72 72 72 72 72 72 72 72 71 71 69 70 69 69 70 69
60 57 57 43 50 61 68 70 71 72 74 72 71 69 69 70 74 74 69 69 70 72 71 70 70 73 74 73 71 73 76 77 77 77 76 76 78 77 77 76 74 73 74 72 70 68 70 71 71 72 71 72 72 70 71 70 70 70 69 68 68 68 68
55 55 52 54 61 62 63 63 63 66 63 65 64 61 63 69 72 71 68 68 69 70 71 70 72 74 73 65 62 74 75 77 80 80 79 78 74 76 77 78 76 76 75 74 71 70 69 68 69 69 70 70 67 66 67 69 68 68 68 66 66 67 67
63 56 50 50 52 46 55 62 68 71 70 70 69 67 62 69 72 74 71 69 69 70 72 72 72 74 67 57 59 70 74 77 77 79 79 80 79 78 77 78 78 76 75 75 75 74 71 70 69 69 68 68 67 66 66 66 67 66 67 67 67 67 67
60 58 52 49 45 52 59 63 67 70 71 68 66 65 60 66 70 73 71 70 71 71 73 73 72 65 60 60 63 69 73 76 78 76 75 76 76 76 76 77 78 79 76 75 74 73 71 68 70 71 71 69 69 66 66 66 67 67 66 67 68 67 67
60 59 56 52 58 52 58 64 67 70 70 66 64 55 55 64 70 72 73 71 71 72 72 72 68 61 60 65 68 74 73 73 74 74 75 75 76 77 78 79 79 77 75 75 74 72 71 70 73 73 73 71 69 67 68 70 70 68 66 67 67 68 68
60 57 60 59 56 63 65 66 69 71 68 64 56 48 57 66 69 71 72 72 72 72 71 70 63 65 67 65 67 71 68 67 66 67 70 75 77 77 77 75 76 77 78 78 77 76 74 74 74 73 73 72 71 71 72 71 70 69 68 70 70 70 73
61 62 57 57 58 61 65 71 70 69 63 57 54 60 68 67 67 69 71 73 73 73 71 71 70 68 71 71 73 71 71 71 69 70 71 72 74 75 75 74 75 76 77 75 75 76 76 77 75 74 73 71 70 70 70 70 71 73 71 70 71 72 72
63 62 58 52 44 59 68 66 69 70 61 60 66 69 71 71 69 69 68 70 71 74 72 74 71 70 69 71 72 73 73 72 72 73 73 72 72 71 72 73 75 76 76 76 77 76 77 77 76 75 74 70 69 69 69 70 73 74 74 73 71 70 71
56 57 53 50 59 64 68 67 62 64 65 68 69 70 70 72 73 72 72 70 71 72 73 74 73 71 69 70 70 71 72 73 74 74 74 75 76 75 76 75 74 76 74 75 75 76 77 76 76 75 72 69 68 67 67 71 73 73 73 73 72 72 71
60 55 60 63 67 67 69 67 66 68 69 70 69 70 71 71 71 71 73 72 72 73 73 73 72 69 71 72 73 71 70 72 73 73 74 75 76 77 76 77 75 75 74 73 74 73 74 74 75 74 74 70 68 67 69 71 71 72 72 73 72 72 72
66 67 67 68 69 68 68 70 69 69 69 72 72 71 71 71 70 72 71 72 74 73 74 73 72 72 72 73 75 73 72 73 72 73 74 74 75 76 75 74 74 74 74 74 74 72 72 73 72 72 72 72 68 68 71 71 72 72 72 71 70 70 71
61 52 66 66 65 68 68 69 69 69 70 70 72 71 70 70 71 72 72 72 72 73 73 73 72 73 74 72 73 72 70 71 71 72 72 72 73 73 73 73 73 75 74 73 71 72 71 73 74 74 71 71 70 70 70 72 72 71 71 70 69 70 70
63 60 64 66 68 67 69 72 70 69 70 70 71 71 72 72 71 71 71 72 72 73 73 73 72 72 73 72 70 70 70 70 70 71 71 71 72 73 73 73 73 73 72 71 70 69 68 70 71 72 71 71 71 72 73 74 73 71 70 70 71 71 72
65 65 66 67 67 68 68 70 71 71 71 71 70 72 73 74 73 72 72 72 72 73 73 73 73 72 72 74 72 72 72 70 70 71 71 71 71 71 71 71 72 71 71 71 69 69 68 69 69 70 70 70 71 71 72 72 71 70 69 69 70 72 73
62 63 64 66 62 63 67 68 69 69 70 71 71 71 71 72 71 71 72 72 72 72 73 73 73 71 71 72 72 72 73 71 71 70 70 71 71 71 72 72 72 71 71 70 70 69 69 69 69 69 69 70 72 74 74 73 71 69 68 69 69 70 72
62 65 67 69 68 66 68 68 70 70 71 71 69 69 69 70 72 72 71 71 71 71 72 74 73 72 71 72 73 72 72 72 72 71 70 71 71 71 71 70 69 69 68 68 68 67 68 69 70 70 69 71 71 73 72 71 71 69 69 69 70 70 69
67 69 69 70 68 67 67 70 70 70 71 71 70 70 70 70 71 71 71 71 69 70 71 72 73 72 72 73 74 72 73 73 72 71 72 73 74 73 72 70 69 68 67 67 66 66 68 69 71 70 71 71 70 72 71 71 70 69 68 68 68 70 71
66 70 71 70 69 70 71 71 71 71 70 70 70 69 69 70 70 72 70 70 71 70 70 70 71 72 71 72 72 72 71 72 72 71 70 71 73 72 73 72 69 69 69 69 69 68 68 68 68 70 71 71 72 73 71 71 70 68 68 68 69 69 69
MSLP
1011.83 1012.23 1011.67 1012.03 1011.39 1017.39 1013.95 1014.03 1015.99 1014.51 1011.71 1013.39 1017.75 1017.55 1016.19 1016.07 1016.55 1017.75 1015.03 1015.27 1013.31 1012.27 1012.55 1012.27 1011.99 1012.15 1012.51 1012.27 1012.19 1012.51 1013.67 1014.43 1015.39 1016.15 1016.19 1015.59 1014.99 1014.95 1015.11 1015.47 1015.59 1015.67 1015.79 1015.95 1016.07 1016.23 1016.43 1016.63 1016.95 1017.23 1017.47 1017.67 1018.03 1018.27 1018.55 1018.87 1018.99 1019.07 1019.23 1019.47 1019.59 1019.71 1019.91
1011.67 1010.51 1010.83 1011.35 1011.35 1010.95 1012.71 1015.83 1013.63 1011.55 1010.99 1012.47 1015.35 1018.87 1018.59 1019.71 1020.47 1017.87 1015.27 1016.87 1015.07 1015.23 1017.11 1013.39 1013.11 1012.99 1012.79 1012.91 1012.43 1012.47 1013.43 1013.99 1015.43 1015.75 1015.95 1016.03 1015.67 1015.15 1014.99 1015.15 1015.23 1015.27 1015.55 1015.79 1015.87 1015.95 1016.11 1016.35 1016.67 1017.03 1017.31 1017.35 1017.63 1017.87 1018.15 1018.59 1018.83 1019.19 1019.07 1019.19 1019.31 1019.51 1019.87
1011.79 1010.51 1011.07 1012.31 1011.31 1010.55 1012.67 1013.43 1010.11 1014.43 1017.99 1018.91 1015.35 1017.39 1020.67 1020.35 1020.31 1018.51 1016.99 1015.43 1014.75 1013.75 1015.15 1014.23 1014.39 1013.55 1013.39 1013.07 1012.59 1012.91 1013.95 1014.27 1014.75 1015.39 1015.75 1015.71 1015.47 1015.19 1015.31 1015.51 1015.47 1015.43 1015.55 1015.71 1015.87 1016.03 1016.07 1016.27 1016.39 1016.67 1016.95 1017.19 1017.47 1017.71 1017.83 1018.15 1018.55 1018.59 1018.71 1018.67 1018.83 1019.07 1019.35
1011.35 1012.03 1012.19 1015.19 1013.75 1011.59 1011.07 1011.07 1011.59 1010.67 1013.03 1014.91 1016.91 1015.91 1015.47 1016.03 1018.99 1019.03 1017.23 1015.91 1016.43 1012.63 1011.95 1013.87 1013.67 1012.83 1012.91 1013.03 1012.95 1013.19 1013.51 1014.07 1014.39 1014.87 1015.51 1015.75 1015.75 1015.67 1015.47 1015.31 1015.43 1015.43 1015.43 1015.55 1015.75 1016.03 1016.31 1016.43 1016.51 1016.59 1016.91 1017.03 1017.47 1017.63 1017.83 1018.07 1018.11 1018.31 1018.47 1018.55 1018.67 1019.07 1019.07
1011.75 1014.79 1012.75 1013.15 1012.75 1014.35 1014.35 1014.23 1013.71 1013.43 1013.39 1010.83 1012.03 1012.83 1014.55 1016.03 1017.59 1017.67 1017.35 1017.67 1014.67 1013.79 1013.79 1012.71 1013.27 1012.99 1012.63 1012.51 1013.07 1012.87 1012.95 1013.47 1013.95 1014.47 1015.11 1015.67 1015.79 1015.75 1015.75 1015.51 1015.35 1015.27 1015.31 1015.43 1015.63 1015.79 1015.99 1016.15 1016.27 1016.51 1016.87 1017.11 1017.27 1017.39 1017.75 1017.99 1018.31 1018.31 1018.43 1018.35 1018.51 1018.79 1018.83
1014.15 1012.51 1011.15 1010.67 1010.71 1011.31 1012.63 1013.31 1014.03 1012.67 1014.47 1015.19 1016.99 1017.23 1012.51 1013.43 1015.83 1017.43 1017.23 1017.39 1014.59 1015.11 1013.31 1013.07 1012.87 1012.63 1012.39 1012.31 1012.63 1013.11 1012.83 1013.23 1013.51 1014.19 1014.79 1015.35 1016.11 1016.31 1016.07 1015.75 1015.43 1015.27 1015.35 1015.39 1015.63 1015.87 1015.87 1016.27 1016.63 1016.95 1016.99 1017.11 1017.31 1017.55 1017.59 1017.91 1017.87 1018.15 1018.27 1018.43 1018.55 1018.71 1018.71
1012.59 1010.99 1009.91 1009.63 1010.15 1009.67 1010.51 1011.39 1012.35 1011.23 1011.91 1012.59 1015.03 1017.91 1015.63 1014.19 1014.03 1013.51 1014.07 1016.27 1016.23 1014.71 1014.15 1013.31 1012.75 1012.39 1012.19 1012.11 1012.19 1012.95 1012.83 1012.91 1013.11 1013.95 1014.35 1014.87 1015.43 1016.19 1016.39 1016.67 1016.75 1016.63 1016.43 1016.35 1016.19 1016.15 1016.23 1016.43 1016.75 1016.95 1017.07 1017.23 1017.39 1017.59 1017.71 1017.91 1018.03 1018.15 1018.07 1018.23 1018.39 1018.63 1018.83
1011.43 1011.11 1010.51 1010.43 1010.19 1010.43 1011.27 1010.95 1010.07 1010.67 1012.47 1011.75 1012.55 1013.07 1012.23 1014.55 1014.43 1015.55 1015.71 1017.31 1015.55 1014.95 1014.19 1013.63 1013.47 1013.11 1012.27 1011.91 1011.99 1012.67 1012.83 1012.91 1013.07 1013.51 1014.15 1014.83 1015.47 1015.83 1016.35 1016.87 1017.19 1017.47 1017.03 1017.23 1017.39 1017.27 1017.03 1016.91 1016.99 1017.07 1017.07 1017.31 1017.47 1017.63 1017.75 1017.87 1018.15 1018.15 1018.23 1018.35 1018.47 1018.71 1018.91
1014.35 1013.63 1012.67 1012.47 1011.23 1011.19 1011.83 1011.75 1010.99 1010.39 1010.35 1010.35 1010.31 1010.63 1010.23 1014.71 1014.15 1014.51 1015.95 1018.15 1015.19 1015.31 1014.15 1013.71 1014.03 1014.07 1013.95 1013.31 1012.67 1012.71 1013.79 1014.07 1013.59 1013.71 1013.87 1014.43 1015.31 1015.91 1016.63 1017.15 1017.23 1017.19 1017.47 1017.87 1017.91 1017.83 1017.75 1017.75 1017.59 1017.51 1017.51 1017.55 1017.67 1017.75 1017.75 1017.91 1018.07 1018.07 1018.35 1018.47 1018.79 1018.99 1019.11
1018.19 1018.23 1017.59 1016.19 1015.31 1013.87 1011.31 1011.03 1011.55 1012.07 1011.99 1012.03 1012.79 1014.87 1014.31 1016.79 1013.71 1013.15 1015.23 1014.79 1014.47 1015.03 1014.71 1014.91 1014.67 1014.95 1014.91 1014.39 1014.19 1014.11 1014.31 1014.71 1014.71 1014.27 1014.39 1014.87 1015.39 1016.03 1016.43 1017.19 1017.55 1017.67 1017.71 1017.79 1017.91 1018.07 1018.11 1018.15 1018.35 1018.23 1018.03 1017.83 1017.91 1018.03 1018.19 1018.07 1018.15 1018.15 1018.35 1018.43 1018.67 1018.95 1019.15
1015.43 1015.95 1015.35 1013.79 1011.87 1011.67 1013.87 1013.15 1012.75 1012.51 1012.23 1011.43 1011.79 1012.27 1013.67 1015.39 1013.99 1014.99 1013.91 1013.35 1015.67 1016.11 1015.75 1015.39 1015.43 1015.35 1015.63 1015.59 1015.27 1015.67 1015.87 1015.59 1015.27 1015.15 1015.03 1015.11 1015.47 1015.83 1016.19 1016.71 1017.11 1017.35 1017.71 1017.95 1018.03 1018.11 1018.07 1018.11 1018.07 1018.19 1018.15 1018.19 1018.23 1018.47 1018.63 1018.47 1018.23 1018.27 1018.35 1018.47 1018.59 1018.83 1019.07
1014.75 1014.15 1014.27 1012.79 1012.11 1013.31 1012.91 1013.35 1013.47 1012.71 1012.67 1012.79 1013.07 1013.75 1013.83 1011.63 1013.23 1016.23 1013.07 1012.31 1013.51 1014.19 1014.67 1015.23 1015.35 1015.27 1015.75 1015.83 1015.55 1016.03 1016.31 1016.35 1015.99 1015.95 1016.15 1015.99 1016.03 1016.19 1016.27 1016.67 1017.11 1017.59 1017.79 1017.83 1018.03 1018.15 1018.35 1018.43 1018.27 1018.19 1018.15 1018.27 1018.43 1018.59 1018.71 1018.63 1018.55 1018.39 1018.35 1018.51 1018.71 1018.83 1018.99
1013.79 1013.35 1013.15 1012.47 1012.63 1012.95 1013.19 1013.15 1013.15 1013.35 1012.95 1013.23 1013.99 1012.75 1013.35 1013.63 1015.03 1015.51 1013.31 1012.59 1013.43 1013.27 1013.83 1014.07 1014.67 1015.19 1016.11 1016.31 1016.11 1015.95 1016.07 1016.35 1016.47 1016.67 1017.03 1017.03 1017.03 1017.07 1017.27 1017.51 1017.83 1017.99 1018.11 1018.07 1018.15 1018.15 1018.19 1018.31 1018.47 1018.47 1018.31 1018.19 1018.23 1018.43 1018.55 1018.67 1018.39 1018.31 1018.23 1018.47 1018.63 1018.83 1019.03
1014.23 1013.91 1013.59 1012.79 1013.15 1013.43 1013.55 1013.67 1013.55 1013.27 1013.07 1013.55 1013.27 1013.87 1013.67 1013.67 1014.79 1014.11 1013.55 1013.87 1014.27 1013.67 1013.91 1014.07 1015.19 1015.19 1015.19 1015.87 1016.11 1016.27 1016.51 1016.55 1016.71 1016.71 1016.79 1017.07 1017.19 1017.55 1017.91 1018.03 1018.31 1018.27 1018.11 1018.19 1018.19 1018.19 1018.31 1018.27 1018.51 1018.75 1018.75 1018.63 1018.59 1018.63 1018.59 1018.35 1018.19 1018.11 1018.23 1018.59 1018.71 1018.87 1019.11
1014.99 1014.11 1013.55 1012.99 1012.95 1013.75 1014.87 1014.35 1013.87 1013.63 1013.51 1013.83 1013.95 1013.91 1014.23 1013.43 1013.79 1013.63 1013.83 1014.79 1015.79 1014.35 1013.43 1014.71 1015.35 1014.75 1014.99 1015.83 1016.43 1016.83 1016.79 1016.83 1016.75 1016.75 1016.91 1017.19 1017.87 1018.19 1017.99 1017.87 1017.67 1017.67 1017.91 1018.11 1018.23 1018.35 1018.39 1018.43 1018.87 1018.79 1018.71 1018.63 1018.63 1018.63 1018.47 1018.27 1018.15 1017.99 1017.99 1018.35 1018.55 1018.71 1018.99
1016.07 1014.39 1013.91 1013.79 1013.15 1013.15 1014.63 1015.43 1015.39 1014.99 1014.71 1015.47 1015.27 1015.75 1015.35 1015.31 1016.15 1015.15 1014.71 1014.95 1015.75 1014.91 1014.99 1015.71 1015.83 1015.87 1016.19 1016.43 1016.75 1017.07 1017.23 1016.87 1016.83 1016.83 1017.03 1017.63 1018.31 1018.19 1018.27 1017.43 1017.55 1017.91 1018.07 1018.27 1018.39 1018.43 1018.51 1018.67 1018.59 1018.51 1018.63 1018.67 1018.71 1018.75 1018.59 1018.47 1018.27 1018.07 1018.23 1018.35 1018.59 1018.67 1018.67
1015.67 1014.63 1014.03 1013.99 1013.67 1013.99 1015.51 1017.07 1016.75 1015.87 1014.99 1014.71 1014.79 1014.79 1014.75 1015.31 1015.15 1014.87 1015.23 1017.63 1015.19 1015.11 1015.63 1016.75 1016.99 1016.47 1016.47 1016.51 1016.59 1017.03 1017.11 1016.95 1016.83 1016.95 1017.19 1017.63 1017.99 1017.59 1017.43 1017.63 1017.79 1017.83 1018.07 1018.31 1018.47 1018.63 1018.79 1018.79 1018.71 1018.55 1018.39 1018.59 1018.83 1018.67 1018.55 1018.39 1018.31 1018.43 1018.43 1018.47 1018.59 1018.71 1018.71
1015.83 1014.95 1014.91 1014.31 1014.91 1017.59 1018.95 1016.67 1015.55 1015.59 1016.11 1015.43 1016.19 1016.55 1016.03 1015.51 1014.79 1015.55 1015.59 1014.71 1014.51 1015.59 1016.03 1016.55 1017.11 1017.07 1016.59 1016.43 1016.23 1015.99 1016.51 1016.91 1016.91 1016.79 1016.71 1016.71 1016.79 1016.95 1017.03 1017.19 1017.63 1018.11 1018.39 1018.63 1018.79 1018.87 1018.87 1018.87 1018.99 1019.07 1018.91 1018.95 1018.95 1018.87 1018.91 1018.87 1019.03 1019.15 1019.15 1019.23 1019.19 1019.15 1018.95
1017.23 1016.63 1015.59 1016.35 1018.43 1019.19 1017.23 1015.63 1015.35 1015.19 1015.15 1014.99 1015.63 1016.15 1016.15 1015.95 1014.67 1014.19 1014.79 1014.91 1015.19 1015.71 1015.23 1015.99 1016.59 1016.27 1015.75 1015.91 1016.27 1016.15 1015.87 1016.15 1016.55 1016.87 1016.79 1016.87 1017.03 1017.27 1017.31 1017.35 1017.83 1018.51 1018.79 1018.91 1019.07 1019.11 1019.11 1019.19 1019.23 1019.23 1019.39 1019.35 1019.35 1019.31 1019.31 1019.43 1019.51 1019.63 1019.67 1019.75 1019.79 1019.75 1019.67
1016.95 1017.51 1017.71 1019.83 1019.99 1017.91 1016.31 1016.07 1015.99 1015.55 1015.11 1015.31 1015.47 1016.23 1016.67 1016.27 1015.31 1015.15 1016.27 1016.27 1015.87 1015.55 1015.95 1016.55 1016.75 1016.43 1016.43 1016.87 1017.15 1016.71 1016.27 1016.11 1016.35 1016.59 1016.91 1016.91 1016.95 1017.39 1017.55 1017.75 1018.27 1018.43 1018.55 1018.91 1019.23 1019.59 1019.43 1019.43 1019.55 1019.55 1019.79 1019.67 1019.67 1019.83 1019.63 1019.71 1019.87 1019.99 1020.11 1020.23 1020.31 1020.19 1020.15
1018.23 1018.19 1018.99 1018.99 1017.75 1017.67 1017.43 1017.55 1017.75 1017.39 1017.95 1017.47 1017.31 1018.11 1018.51 1016.79 1016.15 1016.11 1016.75 1016.83 1016.55 1016.31 1016.31 1016.79 1016.75 1016.67 1017.27 1018.55 1018.83 1017.15 1016.95 1016.43 1015.99 1016.31 1016.71 1016.99 1017.67 1017.71 1017.75 1017.75 1018.11 1018.19 1018.43 1018.83 1019.19 1019.47 1019.79 1019.95 1019.95 1020.07 1020.11 1020.11 1020.39 1020.47 1020.31 1020.15 1020.31 1020.51 1020.55 1020.75 1020.83 1020.75 1020.67
1016.55 1018.03 1020.19 1020.11 1019.71 1020.67 1019.35 1018.31 1016.99 1016.51 1016.71 1016.79 1016.67 1016.91 1018.27 1017.31 1016.59 1015.87 1016.35 1016.67 1016.79 1016.71 1016.47 1016.59 1016.95 1016.71 1018.07 1019.99 1019.75 1018.07 1017.35 1017.07 1017.07 1016.95 1017.11 1017.07 1017.23 1017.67 1017.95 1018.07 1018.23 1018.59 1018.91 1019.03 1019.11 1019.39 1019.91 1020.23 1020.35 1020.35 1020.35 1020.43 1020.59 1020.79 1020.83 1020.67 1020.75 1020.91 1020.87 1020.91 1020.99 1020.99 1020.95
1017.43 1017.63 1019.15 1020.11 1021.39 1019.51 1018.91 1017.99 1017.23 1016.71 1016.51 1017.03 1017.19 1017.31 1018.79 1018.19 1017.19 1016.51 1016.63 1016.67 1016.43 1016.39 1016.55 1016.79 1017.07 1018.23 1019.11 1019.35 1019.27 1018.43 1017.67 1017.35 1017.23 1017.71 1017.91 1017.99 1018.11 1018.27 1018.35 1018.39 1018.67 1018.79 1019.11 1019.31 1019.59 1019.91 1020.27 1020.71 1020.67 1020.51 1020.51 1020.55 1020.71 1021.11 1021.15 1021.27 1020.99 1021.03 1021.27 1021.19 1021.07 1021.15 1021.27
1017.15 1017.31 1018.11 1019.07 1017.99 1019.95 1018.91 1017.79 1017.19 1016.63 1016.79 1017.31 1017.71 1018.99 1019.83 1018.83 1017.59 1016.95 1016.39 1016.63 1016.63 1016.47 1016.43 1016.71 1017.63 1019.39 1019.67 1018.55 1018.71 1018.11 1018.19 1018.19 1018.15 1018.15 1018.27 1018.31 1018.35 1018.31 1018.27 1018.47 1018.67 1019.19 1019.47 1019.71 1020.03 1020.39 1020.63 1020.79 1020.59 1020.59 1020.59 1020.71 1020.99 1021.19 1021.23 1021.27 1021.47 1021.47 1021.71 1021.59 1021.43 1021.47 1021.51
1016.83 1017.43 1016.95 1017.79 1019.11 1018.11 1017.75 1017.59 1016.95 1016.51 1016.99 1017.63 1018.79 1020.31 1020.23 1018.43 1017.99 1017.31 1016.99 1016.51 1016.43 1016.51 1016.91 1017.27 1018.87 1018.87 1018.71 1018.91 1018.91 1018.51 1018.95 1019.23 1019.39 1019.19 1018.99 1018.71 1018.47 1018.47 1018.71 1019.23 1019.15 1019.39 1019.43 1019.51 1019.83 1020.11 1020.39 1020.47 1020.63 1020.71 1020.71 1020.83 1021.07 1021.11 1021.11 1021.27 1021.35 1021.59 1021.87 1021.63 1021.27 1021.31 1021.27
1016.43 1016.43 1017.55 1017.95 1018.59 1018.87 1018.15 1016.91 1016.95 1016.91 1017.75 1018.87 1019.79 1019.47 1018.03 1018.23 1018.15 1017.75 1017.31 1016.71 1016.59 1016.47 1016.99 1017.31 1017.71 1018.27 1018.03 1018.35 1018.23 1018.55 1018.83 1019.11 1019.47 1019.23 1019.23 1019.39 1019.15 1019.23 1019.11 1019.19 1019.23 1019.51 1019.87 1020.27 1020.31 1020.39 1020.39 1020.39 1020.59 1020.83 1020.91 1021.19 1021.27 1021.35 1021.39 1021.47 1021.39 1021.35 1021.63 1021.67 1021.43 1021.35 1021.55
1016.75 1016.71 1017.63 1019.11 1020.99 1018.87 1017.67 1017.83 1016.87 1016.67 1018.23 1019.31 1018.71 1017.79 1017.59 1017.63 1017.83 1017.91 1017.79 1017.39 1017.23 1016.55 1017.07 1017.15 1017.91 1018.15 1018.31 1018.31 1018.35 1018.47 1018.71 1019.07 1019.11 1018.91 1019.07 1019.39 1019.63 1019.91 1019.87 1019.79 1019.39 1019.63 1020.11 1020.31 1020.31 1020.35 1020.35 1020.51 1020.67 1020.83 1021.11 1021.51 1021.67 1021.71 1021.87 1021.79 1021.43 1021.43 1021.47 1021.59 1021.79 1021.99 1021.95
1017.87 1017.51 1018.55 1019.91 1019.23 1018.63 1017.71 1017.47 1018.59 1018.87 1018.63 1018.31 1018.11 1017.99 1017.59 1017.55 1017.31 1017.43 1017.39 1017.59 1017.43 1017.19 1016.87 1017.15 1017.59 1018.03 1018.59 1018.55 1018.63 1018.75 1018.83 1018.95 1018.91 1018.91 1018.99 1018.99 1019.15 1019.47 1019.55 1019.79 1019.67 1019.63 1020.39 1020.47 1020.55 1020.47 1020.51 1020.63 1020.79 1020.99 1021.35 1021.83 1021.99 1022.15 1022.27 1021.87 1021.71 1021.71 1021.71 1021.79 1021.91 1022.07 1022.19
1018.15 1018.67 1018.79 1018.75 1018.19 1018.23 1018.07 1018.15 1018.55 1018.43 1018.31 1018.11 1018.31 1018.03 1017.79 1017.75 1017.71 1017.55 1017.19 1017.35 1017.39 1017.15 1017.27 1017.51 1017.79 1018.43 1018.35 1018.35 1018.43 1018.87 1019.27 1019.11 1019.11 1019.23 1019.27 1019.15 1019.11 1019.11 1019.43 1019.71 1019.87 1020.07 1020.59 1020.95 1020.95 1021.03 1020.99 1021.03 1020.99 1021.11 1021.35 1021.83 1022.11 1022.31 1022.19 1021.99 1021.99 1021.99 1021.99 1021.99 1022.03 1022.07 1022.11
1017.99 1017.91 1017.99 1018.07 1017.99 1018.19 1018.31 1018.23 1018.43 1018.43 1018.31 1017.91 1017.87 1017.99 1017.87 1018.03 1017.99 1017.67 1017.71 1017.47 1017.19 1017.35 1017.19 1017.43 1017.67 1017.87 1018.03 1018.15 1018.23 1018.59 1019.03 1019.11 1019.19 1019.19 1019.31 1019.35 1019.27 1019.35 1019.67 1020.07 1020.31 1020.47 1020.67 1020.87 1021.11 1021.39 1021.47 1021.31 1021.43 1021.51 1021.63 1021.83 1022.27 1022.35 1022.15 1022.11 1022.07 1022.15 1022.19 1022.31 1022.39 1022.43 1022.35
1018.55 1020.11 1018.43 1018.47 1018.75 1018.43 1018.35 1018.43 1018.47 1018.51 1018.39 1018.47 1018.15 1018.19 1018.27 1018.35 1018.15 1017.87 1017.83 1017.67 1017.63 1017.51 1017.55 1017.55 1017.67 1017.75 1017.83 1018.19 1018.27 1018.71 1019.31 1019.35 1019.47 1019.63 1019.67 1019.75 1019.83 1019.87 1019.99 1020.11 1020.27 1020.39 1020.63 1021.11 1021.47 1021.55 1021.71 1021.51 1021.47 1021.67 1021.95 1022.03 1022.23 1022.31 1022.35 1022.27 1022.31 1022.35 1022.39 1022.47 1022.55 1022.55 1022.59
1018.11 1018.99 1018.63 1018.55 1018.51 1018.63 1018.39 1017.91 1018.27 1018.59 1018.63 1018.55 1018.39 1018.31 1018.19 1018.19 1018.19 1018.15 1018.19 1017.91 1017.87 1017.75 1017.79 1017.75 1017.91 1018.07 1018.07 1018.35 1018.79 1019.03 1019.27 1019.43 1019.75 1019.67 1019.83 1019.99 1020.03 1019.99 1020.07 1020.19 1020.27 1020.55 1020.83 1021.23 1021.59 1021.79 1022.03 1021.91 1021.83 1021.91 1022.07 1022.15 1022.19 1022.11 1022.11 1022.07 1022.27 1022.51 1022.59 1022.55 1022.51 1022.55 1022.47
1017.99 1018.35 1018.31 1018.27 1018.43 1018.39 1018.39 1018.27 1018.23 1018.19 1018.27 1018.47 1018.51 1018.23 1018.03 1017.83 1018.07 1018.19 1018.19 1018.19 1018.11 1018.03 1017.99 1017.83 1018.07 1018.23 1018.31 1018.31 1018.67 1018.83 1018.99 1019.35 1019.59 1019.71 1019.79 1019.95 1020.11 1020.31 1020.43 1020.47 1020.51 1020.71 1020.91 1021.23 1021.59 1021.83 1022.15 1022.19 1022.19 1022.23 1022.31 1022.31 1022.27 1022.35 1022.35 1022.39 1022.51 1022.67 1022.83 1022.87 1022.71 1022.51 1022.43
1018.31 1017.83 1018.03 1018.19 1018.79 1018.75 1018.47 1018.39 1018.35 1018.55 1018.43 1018.27 1018.31 1018.27 1018.31 1018.27 1018.39 1018.31 1018.31 1018.35 1018.31 1018.31 1018.31 1018.15 1018.19 1018.47 1018.63 1018.55 1018.67 1018.87 1018.79 1019.11 1019.35 1019.59 1019.79 1019.91 1020.11 1020.23 1020.23 1020.39 1020.55 1020.79 1020.95 1021.11 1021.35 1021.71 1022.07 1022.15 1022.27 1022.39 1022.47 1022.43 1022.27 1022.15 1022.31 1022.47 1022.63 1022.83 1022.91 1022.91 1022.87 1022.75 1022.55
1017.95 1017.75 1017.55 1017.39 1017.79 1018.23 1018.03 1018.27 1018.27 1018.31 1018.27 1018.27 1018.63 1018.83 1018.75 1018.63 1018.51 1018.51 1018.51 1018.55 1018.55 1018.67 1018.55 1018.35 1018.39 1018.55 1018.71 1018.71 1018.75 1018.95 1018.99 1019.07 1019.27 1019.47 1019.67 1019.83 1019.95 1020.11 1020.19 1020.51 1020.79 1020.99 1021.19 1021.35 1021.47 1021.71 1021.87 1022.03 1022.19 1022.39 1022.55 1022.43 1022.39 1022.35 1022.47 1022.55 1022.71 1022.91 1022.91 1022.87 1022.79 1022.83 1022.95
1017.59 1017.27 1017.43 1017.51 1017.83 1018.07 1018.35 1018.19 1018.35 1018.39 1018.35 1018.35 1018.63 1018.71 1018.71 1018.75 1018.75 1018.67 1018.75 1018.79 1018.95 1018.91 1018.79 1018.71 1018.55 1018.67 1018.75 1018.67 1018.63 1018.87 1018.91 1019.03 1019.31 1019.47 1019.55 1019.59 1019.67 1019.87 1020.23 1020.51 1020.83 1021.03 1021.27 1021.43 1021.55 1021.71 1021.75 1021.79 1021.99 1022.19 1022.27 1022.39 1022.51 1022.47 1022.63 1022.71 1022.83 1022.99 1022.99 1022.95 1022.95 1022.83 1022.83
1017.63 1017.15 1017.31 1017.55 1017.75 1017.87 1017.83 1018.11 1018.23 1018.39 1018.55 1018.55 1018.63 1018.83 1018.95 1018.91 1018.83 1018.71 1018.91 1018.99 1018.91 1018.95 1018.99 1018.99 1018.87 1018.83 1018.95 1018.91 1018.91 1018.99 1019.11 1019.15 1019.27 1019.47 1019.63 1019.67 1019.67 1019.95 1020.15 1020.43 1020.79 1020.95 1021.11 1021.23 1021.35 1021.55 1021.63 1021.71 1021.95 1022.03 1022.15 1022.35 1022.39 1022.43 1022.67 1022.79 1022.91 1023.11 1023.19 1023.03 1022.99 1022.99 1023.11
Wind_Speed
12 15 13 13 7 9 11 11 14 12 7 10 9 8 11 11 6 8 3 7 6 7 7 7 6 5 7 8 10 11 12 14 16 14 10 12 13 13 13 13 14 15 14 14 13 13 12 12 11 11 11 12 12 12 12 12 12 11 12 12 12 11 10
13 14 14 14 14 9 6 12 11 8 5 8 8 9 7 9 9 6 7 9 8 7 4 1 5 7 7 9 11 12 13 14 17 15 14 10 11 13 12 12 13 14 14 14 13 12 12 12 11 11 12 12 11 11 12 13 12 12 12 12 12 11 10
13 10 11 15 14 16 8 8 9 12 11 13 9 6 10 11 11 7 7 8 9 8 4 6 7 7 8 10 11 12 13 14 17 16 14 14 13 12 13 12 12 12 12 12 12 12 11 11 11 11 12 11 10 11 11 11 13 13 13 11 11 10 10
13 12 13 14 13 15 13 8 10 11 8 11 12 11 9 6 8 8 8 10 8 8 1 8 6 7 9 10 11 12 13 14 14 16 15 13 13 12 12 13 12 12 12 12 12 11 11 11 10 10 10 10 11 11 11 11 10 10 11 11 10 11 11
12 11 11 13 13 14 14 12 9 10 10 6 9 9 13 9 8 8 8 9 7 5 5 5 8 7 8 10 10 9 10 12 14 15 15 12 9 9 11 11 11 12 12 12 11 10 9 9 9 9 9 10 10 10 10 11 11 12 12 11 10 10 9
10 9 12 15 15 15 13 13 12 10 11 12 9 10 8 10 8 5 7 8 4 6 3 4 6 6 7 8 8 8 8 11 12 12 15 15 9 5 6 6 6 9 9 10 9 7 8 8 8 9 8 9 9 10 9 10 10 10 10 10 10 9 9
10 5 10 8 7 10 15 13 12 11 11 10 10 10 10 9 10 8 7 8 3 2 2 1 3 5 6 8 8 8 7 10 12 12 14 15 14 10 7 6 6 4 5 5 1 5 8 9 8 9 9 9 9 9 9 9 9 10 10 10 9 8 8
1 4 5 5 6 6 13 15 13 11 13 13 12 10 8 8 9 9 8 9 2 5 3 2 3 3 1 5 8 8 8 8 9 12 13 13 13 11 8 8 8 7 4 1 2 1 3 5 6 8 8 7 7 8 9 8 10 9 9 7 8 8 8
7 7 7 11 11 9 9 11 13 9 7 12 13 11 6 8 12 10 11 12 6 5 4 4 6 6 5 6 6 5 7 6 8 10 12 12 12 10 9 8 8 8 7 7 6 4 2 2 2 3 5 6 6 8 8 8 8 8 7 6 5 5 5
11 12 12 14 14 14 10 4 2 6 10 9 7 9 6 6 8 13 11 9 6 8 6 7 7 7 7 6 7 5 5 7 8 9 10 11 11 10 10 9 8 7 6 5 4 4 3 2 2 1 1 1 3 3 5 6 7 8 8 7 7 7 7
2 3 6 5 3 10 11 9 8 7 10 8 9 8 10 10 7 8 10 10 6 8 10 9 10 10 9 10 9 8 7 6 5 5 8 9 9 10 12 12 10 9 8 7 6 5 5 5 6 6 6 5 4 3 2 3 5 7 8 8 9 9 9
7 5 5 5 2 7 5 8 9 6 9 9 12 11 8 7 7 9 10 9 11 7 12 11 11 11 8 7 9 8 7 7 6 7 7 7 8 9 9 9 10 8 7 7 7 6 4 4 4 4 4 4 6 6 8 9 8 7 6 7 9 9 8
7 6 7 7 7 7 6 5 4 6 7 8 14 11 3 3 8 5 0 8 11 5 10 11 9 8 8 5 6 7 8 8 8 9 9 10 10 10 10 10 8 7 6 4 4 4 5 5 5 5 4 4 3 5 7 10 11 11 9 9 10 10 8
8 7 6 5 9 9 10 9 7 5 5 4 2 2 4 2 2 2 2 5 8 6 9 9 10 8 9 8 6 6 6 8 8 9 10 10 11 11 10 7 5 5 5 5 5 4 3 4 5 5 4 5 5 7 9 11 10 8 8 9 9 8 8
8 9 7 5 10 10 13 12 11 8 6 6 6 6 8 5 4 4 7 9 9 7 7 10 9 7 8 8 8 6 6 7 8 8 9 9 9 8 8 8 8 7 6 4 4 4 3 4 6 2 4 4 6 5 3 6 7 7 8 10 10 9 9
7 5 3 7 5 11 13 14 13 12 8 7 8 8 9 7 5 4 4 6 5 6 9 8 8 9 8 8 9 8 6 7 7 8 8 10 9 8 7 8 9 9 7 6 5 4 5 7 7 4 5 5 5 4 3 3 2 2 5 6 8 8 8
4 5 4 2 6 6 7 11 10 9 8 8 10 10 10 10 8 4 1 5 3 8 8 9 8 8 7 9 9 8 8 7 7 7 8 10 11 10 9 8 8 8 8 7 6 7 7 6 6 5 5 6 6 4 2 1 4 4 5 7 7 7 8
3 2 6 7 7 9 5 5 6 6 9 9 10 11 11 11 9 6 3 4 6 9 8 9 10 10 8 7 7 8 8 7 8 8 7 8 9 9 8 8 7 8 7 7 8 8 8 8 8 7 7 7 6 5 6 7 8 7 7 8 6 4 2
4 5 6 4 5 6 6 3 7 4 4 6 13 13 13 11 9 7 6 5 7 7 5 9 8 6 9 8 7 7 7 7 7 7 7 7 9 9 7 8 9 8 8 9 9 9 8 8 7 8 8 8 8 8 8 9 9 9 9 8 7 6 7
2 2 2 2 3 5 3 4 8 6 3 4 3 14 14 12 10 9 9 7 5 5 10 11 8 8 11 10 6 6 6 5 6 5 6 7 7 8 7 9 9 8 8 9 10 9 7 7 8 9 9 8 9 10 10 11 11 10 10 9 9 8 8
4 4 2 3 3 5 3 2 6 8 6 7 6 7 10 10 9 8 7 5 5 6 10 10 10 10 9 9 5 6 6 4 6 7 7 8 11 10 7 7 8 8 8 9 11 9 8 7 8 9 9 10 10 9 10 11 11 10 10 10 9 9 9
3 6 5 3 4 5 5 5 3 3 3 6 6 3 10 9 8 5 5 5 4 5 6 8 9 9 8 6 5 5 7 7 9 9 8 7 8 9 8 8 8 10 10 10 11 11 11 10 9 8 9 10 10 9 10 10 10 10 10 10 9 9 8
7 6 7 5 6 1 5 6 5 6 4 3 2 5 7 8 8 4 3 3 3 4 7 8 8 7 6 7 7 6 7 8 8 10 9 9 9 9 8 8 9 10 10 12 13 12 12 11 8 10 10 10 10 10 9 9 9 11 10 9 9 9 9
7 8 7 5 1 4 5 7 7 7 3 3 3 6 4 7 8 5 3 3 2 3 4 5 5 1 3 6 8 8 9 9 10 9 9 9 9 8 9 9 9 11 11 12 12 12 11 9 7 7 6 6 9 8 7 6 8 10 8 7 8 8 6
5 5 4 5 5 5 6 6 8 5 2 3 4 1 5 6 6 5 2 3 3 2 4 2 3 3 3 8 9 9 8 7 7 9 8 7 7 8 10 9 9 9 8 8 10 11 9 9 8 7 6 7 8 7 7 7 9 10 7 6 7 7 5
4 7 6 3 6 4 6 5 5 2 3 3 3 3 1 4 4 4 5 2 2 2 5 3 3 5 8 10 9 9 8 8 7 9 10 7 9 7 9 10 8 8 8 9 10 10 9 9 8 7 7 8 8 7 8 9 9 8 8 7 6 7 6
1 3 3 4 2 5 8 11 4 5 5 6 2 1 4 4 2 2 2 3 2 0 6 5 7 9 8 7 7 7 7 6 7 8 9 9 9 8 8 8 9 9 8 8 9 9 8 8 7 7 8 9 8 8 8 8 7 7 7 7 7 6 5
1 5 2 2 6 5 9 8 5 7 7 4 4 4 5 4 4 1 2 0 2 2 2 5 7 10 10 8 7 7 7 7 7 6 7 8 9 10 10 9 8 10 8 7 7 7 7 7 7 7 8 8 8 9 8 6 7 7 7 7 7 6 6
5 5 6 6 4 4 5 6 6 5 4 3 4 5 4 6 6 4 3 3 1 0 2 5 7 8 7 8 10 8 7 7 7 7 7 8 9 9 10 10 10 9 9 9 7 8 6 7 6 6 7 8 9 9 7 6 6 6 6 6 5 6 5
5 6 6 4 5 5 5 5 4 4 4 4 4 6 6 6 5 5 5 4 2 1 1 1 4 5 8 9 10 9 8 8 7 7 8 7 8 10 10 10 9 9 8 8 8 8 7 6 6 6 6 7 9 8 6 6 6 5 5 6 6 5 5
4 4 5 5 6 5 4 4 4 3 3 4 4 5 5 6 6 5 4 4 2 1 0 2 1 3 6 8 8 8 8 8 8 7 8 8 8 9 10 11 10 9 9 9 8 8 8 6 6 7 7 7 7 7 6 6 6 5 5 5 5 4 4
1 6 7 5 5 4 3 2 4 5 5 5 5 4 4 4 4 4 4 2 2 1 1 1 2 3 5 8 8 9 8 8 8 8 7 8 8 8 9 10 9 9 8 8 8 8 7 6 6 6 6 6 6 5 5 5 6 5 4 3 4 4 4
5 5 5 4 4 4 6 5 5 5 4 4 5 5 5 5 6 5 4 4 3 2 2 1 2 4 5 7 8 9 8 7 8 8 8 8 8 9 10 9 8 8 9 9 9 8 7 6 6 6 6 5 5 4 4 4 4 4 5 4 3 3 2
4 1 6 6 4 4 6 5 6 6 5 3 5 5 5 6 6 6 5 4 3 2 2 1 3 4 5 6 7 8 8 8 8 8 8 8 9 9 9 8 7 8 8 9 10 9 7 6 6 5 5 4 4 4 4 4 4 4 4 3 3 2 2
2 7 6 3 1 2 5 6 5 5 3 3 4 5 5 5 5 5 5 4 3 2 1 0 2 3 4 6 7 7 6 7 8 8 10 10 10 9 9 8 8 8 8 7 8 9 8 7 6 5 4 4 4 4 4 4 4 4 2 2 2 3 3
2 1 4 3 1 1 5 5 5 4 3 2 3 4 4 4 4 4 4 5 5 3 3 0 2 2 3 5 6 8 7 6 7 9 9 10 10 9 8 8 8 8 9 9 9 10 8 7 7 6 5 5 4 5 4 4 3 3 2 2 2 2 3
1 4 3 3 2 3 4 4 4 4 3 3 3 4 4 3 4 4 4 4 4 5 3 2 1 1 3 3 5 6 6 6 7 8 9 9 10 9 9 9 9 9 9 7 7 8 8 7 7 6 6 5 4 4 4 4 3 3 2 2 3 3 2
Wind_Direction
184 200 199 214 222 202 180 206 212 212 211 212 216 226 234 254 266 235 154 236 239 122 188 168 182 184 173 183 182 171 166 171 167 174 178 197 194 189 187 188 188 189 193 197 200 199 198 199 196 194 189 185 187 184 184 187 190 191 193 195 201 205 204
202 207 201 210 206 263 147 209 207 206 242 295 243 232 195 232 234 221 207 220 227 208 184 119 189 196 168 174 182 171 161 173 176 175 179 180 186 193 191 189 190 189 191 196 199 200 202 200 194 191 189 189 188 188 186 186 187 193 196 197 202 201 203
185 206 206 206 211 223 227 222 189 209 185 211 210 251 223 217 221 228 209 234 245 239 173 166 172 180 158 165 169 165 164 175 182 176 174 178 185 192 191 193 191 190 189 193 197 199 198 199 197 192 190 189 188 191 190 189 193 193 198 202 203 204 203
164 191 199 207 192 200 233 287 234 199 228 216 212 212 252 249 241 235 208 205 235 208 274 154 177 148 151 156 166 172 167 172 175 176 172 172 177 186 189 191 189 186 189 194 195 194 193 193 194 192 190 191 191 190 187 189 193 194 202 207 201 206 206
151 197 196 209 190 189 195 213 217 190 232 252 243 217 227 232 239 229 244 223 220 82 20 83 124 143 150 159 164 167 169 169 170 172 172 166 156 173 185 192 190 188 192 193 190 190 190 189 188 188 187 192 191 191 189 189 189 195 200 207 201 205 207
197 202 190 215 203 194 198 202 214 210 201 209 210 221 210 232 232 231 233 241 95 60 47 84 126 131 148 152 161 164 168 166 164 165 166 173 158 119 103 116 152 174 179 186 178 181 190 184 182 182 182 185 189 193 190 192 195 196 196 199 198 200 207
193 204 156 217 325 211 203 198 214 207 214 218 217 229 203 211 227 245 257 270 145 72 68 84 118 136 150 166 159 164 165 163 172 166 166 168 166 154 140 117 82 67 106 109 124 191 193 192 187 188 186 191 193 191 192 190 200 195 198 194 193 194 199
300 124 144 208 250 215 210 206 225 207 215 213 230 229 230 233 219 214 218 236 167 104 95 151 82 103 118 154 158 161 155 157 166 171 164 166 162 165 148 128 140 180 185 123 73 266 210 205 190 194 195 191 191 193 194 194 201 197 195 194 190 192 194
184 176 179 198 199 217 224 212 206 243 249 222 231 244 238 222 222 217 232 235 202 111 147 132 149 144 149 152 135 143 143 148 165 166 166 173 173 160 153 147 165 160 153 162 175 196 160 116 157 205 210 194 199 199 196 193 193 188 182 181 176 179 189
192 182 183 183 183 206 203 246 127 219 237 224 218 224 207 238 228 212 226 234 87 125 152 151 156 156 151 130 123 100 111 152 164 170 160 162 174 172 166 159 154 160 151 132 136 139 165 212 247 298 317 211 199 207 201 209 193 183 178 177 176 176 172
281 42 8 23 279 162 203 174 216 198 223 245 245 246 234 221 218 221 226 243 151 162 165 163 165 169 162 147 138 139 138 137 135 160 169 168 167 170 173 169 163 156 154 150 148 153 165 178 190 203 211 209 183 169 264 245 203 185 180 177 179 183 184
74 89 59 68 144 175 164 180 184 188 202 213 228 230 248 244 237 237 221 223 243 174 160 161 165 166 145 147 142 135 138 138 145 111 101 131 154 154 156 158 150 141 150 161 163 163 157 162 175 178 173 191 196 190 208 221 216 200 180 175 190 187 181
98 86 83 96 105 113 123 119 142 178 183 202 223 230 23 341 234 271 72 189 222 135 152 152 155 148 150 147 137 137 139 141 141 139 135 130 124 123 124 124 123 140 151 139 140 156 167 175 183 174 194 210 156 157 200 221 222 210 191 190 197 194 189
102 107 122 121 108 108 93 82 84 98 134 122 178 116 25 38 34 16 165 85 77 96 126 140 140 164 156 144 123 125 138 145 144 147 153 149 147 135 127 134 126 138 152 167 179 161 169 168 158 162 186 203 190 197 205 213 215 206 189 186 195 193 190
109 114 127 136 124 99 86 67 59 65 91 81 58 42 31 347 77 45 115 107 92 72 93 113 136 155 128 134 138 136 131 137 144 141 142 137 112 117 135 173 171 165 168 170 160 169 156 131 110 178 199 187 194 197 212 218 215 201 200 194 197 199 198
145 102 136 144 142 114 83 56 41 41 46 70 49 48 26 20 22 22 154 149 117 108 108 117 136 134 142 139 133 128 128 138 143 142 135 120 119 138 156 157 132 132 137 139 141 132 104 82 88 115 151 178 188 193 175 192 182 176 191 204 205 208 209
141 134 11 342 185 183 99 34 24 14 55 87 85 63 41 30 336 298 243 50 36 121 125 129 136 144 146 143 142 133 133 135 136 128 127 130 147 145 137 127 125 120 113 107 99 88 80 92 108 106 100 91 73 75 103 173 201 210 215 215 212 212 212
193 96 339 311 218 189 75 28 4 9 39 53 68 47 38 35 17 33 9 27 101 136 156 154 148 150 151 137 132 136 134 135 130 127 130 129 122 127 127 122 108 95 95 93 91 90 90 89 85 85 87 87 85 80 74 67 70 69 73 64 53 53 76
249 360 304 260 156 90 87 56 30 13 42 67 72 63 47 35 32 51 78 111 135 143 166 131 139 122 116 116 127 128 122 124 129 131 129 126 118 111 122 116 106 99 97 98 91 86 85 89 90 89 82 86 93 91 86 80 71 68 65 61 57 59 56
39 295 346 231 91 79 150 79 27 3 236 61 183 70 45 35 33 51 63 62 91 128 115 120 133 132 102 93 83 102 112 115 115 118 113 112 117 118 117 114 110 123 116 101 96 92 88 83 81 79 77 76 86 84 78 74 70 68 68 60 57 51 49
205 164 182 19 156 175 134 130 23 7 13 355 358 60 43 29 37 42 63 83 92 115 124 124 139 130 121 90 62 81 66 77 107 105 108 99 94 96 118 117 110 99 106 108 108 105 94 87 88 89 86 77 70 67 69 76 74 69 65 59 51 53 56
288 161 135 195 224 216 132 76 19 6 349 321 308 290 81 24 26 33 43 70 109 132 138 141 147 156 132 101 100 91 96 81 77 80 83 89 95 100 108 105 110 110 106 109 110 109 102 91 90 93 92 87 85 79 74 74 75 69 65 70 65 55 46
198 198 179 177 201 132 27 33 7 26 357 306 323 249 81 21 9 38 352 79 124 138 156 152 168 169 163 122 118 107 104 97 100 102 96 97 107 116 120 125 126 122 113 109 106 101 99 95 96 98 99 99 89 77 72 71 74 80 74 70 67 65 59
195 208 195 189 55 64 25 9 354 4 41 214 234 234 126 5 354 14 2 75 90 128 151 173 152 253 257 141 106 98 84 77 71 73 90 102 104 107 112 114 111 112 117 120 117 116 113 112 115 106 90 81 91 102 105 108 94 85 85 97 102 100 96
163 226 173 109 120 91 16 352 343 354 6 286 238 337 37 344 332 349 344 55 64 95 139 158 142 60 76 110 134 143 129 110 92 82 59 71 93 107 114 109 118 122 123 116 110 109 109 116 114 114 113 103 97 98 103 101 96 102 95 74 77 77 84
183 194 211 164 79 48 326 332 335 8 260 229 60 62 278 330 330 346 320 4 81 112 137 133 88 112 107 133 140 137 146 139 129 133 121 105 98 92 115 128 124 108 105 109 109 108 113 115 114 112 109 101 98 97 96 96 98 104 117 117 89 85 87
167 206 161 160 178 70 360 326 252 18 318 70 29 35 78 8 11 303 325 317 58 60 129 116 104 109 123 129 135 138 138 141 141 136 133 137 133 132 127 128 124 126 126 128 122 119 113 104 104 107 104 99 99 98 95 91 92 96 101 106 114 103 81
283 189 169 63 45 28 6 0 57 47 55 31 20 331 54 40 26 32 147 239 2 351 67 128 140 130 140 149 148 149 144 146 138 136 146 145 139 148 144 131 125 115 112 107 101 90 90 100 108 111 111 109 106 103 99 100 99 105 104 101 103 108 112
345 37 67 89 74 58 39 39 64 55 40 29 5 352 19 19 34 2 338 87 129 183 104 120 128 142 177 166 165 160 150 151 152 154 158 150 149 141 136 135 134 134 130 125 115 108 99 94 90 96 108 114 114 107 107 109 105 101 102 104 104 98 89
101 72 53 108 107 83 88 77 51 46 44 41 14 10 22 33 17 358 6 8 45 79 305 159 156 165 171 173 174 165 161 164 161 158 154 153 145 131 127 127 129 128 128 122 117 108 103 104 104 104 108 112 110 109 110 106 105 103 102 100 95 90 87
214 122 140 113 105 118 101 102 91 82 58 40 26 39 31 29 16 26 21 12 36 9 325 267 182 163 160 173 167 153 169 180 170 166 157 152 154 151 146 139 144 144 133 131 127 119 114 108 107 109 110 110 112 118 121 119 109 105 101 97 97 94 91
290 97 116 107 114 118 119 136 138 115 91 71 59 51 46 46 49 39 38 7 55 5 220 254 230 183 176 176 164 167 176 178 181 183 169 159 157 153 144 142 143 136 135 130 127 123 118 115 111 113 116 116 122 124 120 114 114 122 118 116 119 122 129
110 137 137 130 146 152 140 117 73 71 78 96 84 68 60 55 55 64 72 28 28 11 12 185 203 194 190 188 180 182 175 178 183 186 177 166 156 146 148 144 147 142 139 133 131 130 124 128 125 120 118 121 121 123 120 110 112 107 103 103 88 96 96
223 239 145 162 225 167 151 123 106 98 86 70 79 72 58 49 45 36 40 66 69 16 24 219 191 196 192 199 192 199 193 189 181 179 175 171 164 160 150 147 142 133 134 135 136 131 132 135 129 131 139 138 149 132 124 117 113 110 114 117 118 98 87
35 83 116 162 310 11 76 107 112 105 78 69 69 60 53 52 48 30 20 26 57 67 69 343 233 198 208 203 201 206 208 199 186 182 178 176 173 169 160 152 145 138 136 139 138 138 141 144 138 142 145 143 130 111 101 105 110 107 109 108 121 120 100
50 66 97 137 227 315 123 115 109 102 74 49 76 74 63 51 40 39 35 26 11 28 41 118 257 252 231 230 220 222 215 206 191 188 188 189 184 173 165 163 157 156 159 166 163 154 150 151 146 156 152 137 133 124 117 104 102 100 94 113 97 68 90
31 107 132 126 118 105 113 118 116 100 83 14 24 48 49 49 56 35 43 42 33 13 11 36 87 246 242 229 233 234 225 217 207 196 188 189 184 181 180 176 175 176 178 174 167 158 154 149 155 165 149 142 144 118 119 120 108 95 77 54 64 78 84